This is the latest recevied weather packets stored in our database for station/object KK7PZE-13. If no packets are shown the sender has not sent any weather packets the latest 10 day(s).
| Time | Temp. | Humidity | Pressure | Rain* | Wind** | Luminosity | Snow |
|---|---|---|---|---|---|---|---|
| 1776960099 | 22.22° C | 21% | 1015.1 hPa | 0 mm | - | 433 W/m² | - |
| 1776959795 | 21.67° C | 21% | 1015.2 hPa | 0 mm | - | 424 W/m² | - |
| 1776959493 | 21.11° C | 21% | 1015.1 hPa | 0 mm | - | 378 W/m² | - |
| 1776959189 | 21.11° C | 22% | 1015.1 hPa | 0 mm | - | 356 W/m² | - |
| 1776958884 | 21.11° C | 22% | 1015.2 hPa | 0 mm | - | 344 W/m² | - |
| 1776958583 | 21.67° C | 22% | 1015.3 hPa | 0 mm | - | 382 W/m² | - |
| 1776958281 | 21.11° C | 22% | 1015.3 hPa | 0 mm | - | 380 W/m² | - |
| 1776957977 | 21.11° C | 22% | 1014.9 hPa | 0 mm | - | 355 W/m² | - |
| 1776957673 | 20.56° C | 23% | 1014.9 hPa | 0 mm | - | 359 W/m² | - |
| 1776957368 | 21.11° C | 23% | 1015.1 hPa | 0 mm | - | 301 W/m² | - |
| 1776957063 | 20.56° C | 23% | 1015.1 hPa | 0 mm | - | 323 W/m² | - |
| 1776956762 | 20° C | 24% | 1014.9 hPa | 0 mm | - | 282 W/m² | - |
| 1776956461 | 20° C | 24% | 1014.9 hPa | 0 mm | - | 240 W/m² | - |
| 1776956156 | 20° C | 25% | 1014.8 hPa | 0 mm | - | 269 W/m² | - |
| 1776955852 | 19.44° C | 27% | 1014.8 hPa | 0 mm | - | 213 W/m² | - |
| 1776955549 | 18.89° C | 28% | 1014.9 hPa | 0 mm | - | 208 W/m² | - |
| 1776955245 | 18.89° C | 28% | 1014.7 hPa | 0 mm | - | 148 W/m² | - |
| 1776954941 | 18.33° C | 28% | 1014.8 hPa | 0 mm | - | 181 W/m² | - |
| 1776954638 | 18.33° C | 29% | 1014.8 hPa | 0 mm | - | 127 W/m² | - |
| 1776954337 | 18.33° C | 29% | 1014.7 hPa | 0 mm | - | 125 W/m² | - |
| 1776954032 | 18.89° C | 29% | 1014.6 hPa | 0 mm | - | 154 W/m² | - |
| 1776953726 | 18.89° C | 28% | 1014.8 hPa | 0 mm | - | 137 W/m² | - |
| 1776953421 | 18.33° C | 26% | 1014.8 hPa | 0 mm | - | 139 W/m² | - |
| 1776953120 | 16.67° C | 29% | 1014.7 hPa | 0 mm | - | 134 W/m² | - |
| 1776952816 | 16.11° C | 30% | 1014.6 hPa | 0 mm | - | 91 W/m² | - |
* Rain latest hour (hover to see other rain measurements)
** Current wind speed in m/s (hover to see current wind gust speed)